• Em Portugal
  • Lista de países
  • Para 7 dias
  • Temperatura da água
  • Mapas de satélite
  • Mapa do tempo
  • Widgets de tempo
  • user-avatar
    Iniciar Sessão

    Previsão horária em Pleven

    Hoje, 25 Setembro, Terça-feira

    Tempo Temperatura Precipitação Vento Pressão Humidade
    00:00 +11°C° 0 mm 7 m/s 750 mmHg 55%
    01:00 +11°C° 0 mm 7 m/s 751 mmHg 56%
    02:00 +9°C° 0 mm 6 m/s 751 mmHg 60%
    03:00 +9°C° 0 mm 6 m/s 751 mmHg 62%
    04:00 +8°C° 0 mm 5 m/s 752 mmHg 64%
    05:00 +8°C° 0 mm 5 m/s 752 mmHg 67%
    06:00 +8°C° 0 mm 5 m/s 753 mmHg 62%
    07:00 +9°C° 0 mm 5 m/s 753 mmHg 58%
    08:00 +10°C° 0 mm 7 m/s 753 mmHg 56%
    09:00 +11°C° 0 mm 7 m/s 753 mmHg 49%
    10:00 +14°C° 0 mm 7 m/s 753 mmHg 42%
    11:00 +15°C° 0 mm 6 m/s 753 mmHg 35%
    12:00 +16°C° 0 mm 6 m/s 753 mmHg 31%
    13:00 +17°C° 0 mm 6 m/s 753 mmHg 28%
    14:00 +17°C° 0 mm 6 m/s 753 mmHg 24%
    15:00 +17°C° 0 mm 6 m/s 753 mmHg 25%
    16:00 +17°C° 0 mm 6 m/s 753 mmHg 25%
    17:00 +16°C° 0 mm 5 m/s 753 mmHg 26%
    18:00 +14°C° 0 mm 4 m/s 754 mmHg 30%
    19:00 +13°C° 0 mm 4 m/s 754 mmHg 34%
    20:00 +11°C° 0 mm 3 m/s 755 mmHg 38%
    21:00 +10°C° 0 mm 3 m/s 756 mmHg 41%
    22:00 +9°C° 0 mm 2 m/s 756 mmHg 43%
    23:00 +9°C° 0 mm 2 m/s 757 mmHg 45%

    Amanhã, 26 Setembro, Quarta-feira

    Tempo Temperatura Precipitação Vento Pressão Humidade
    00:00 +8°C° 0 mm 2 m/s 757 mmHg 48%
    01:00 +9°C° 0 mm 1 m/s 757 mmHg 50%
    02:00 +8°C° 0 mm 1 m/s 757 mmHg 53%
    03:00 +8°C° 0 mm 1 m/s 758 mmHg 54%
    04:00 +7°C° 0 mm 1 m/s 758 mmHg 56%
    05:00 +7°C° 0 mm 1 m/s 758 mmHg 57%
    06:00 +8°C° 0 mm 1 m/s 758 mmHg 54%
    07:00 +9°C° 0 mm 1 m/s 759 mmHg 51%
    08:00 +10°C° 0 mm 1 m/s 759 mmHg 48%
    09:00 +12°C° 0 mm 2 m/s 759 mmHg 44%
    10:00 +14°C° 0 mm 2 m/s 759 mmHg 40%
    11:00 +15°C° 0 mm 2 m/s 759 mmHg 36%
    12:00 +16°C° 0 mm 3 m/s 759 mmHg 35%
    13:00 +16°C° 0 mm 3 m/s 758 mmHg 34%
    14:00 +17°C° 0 mm 3 m/s 758 mmHg 32%
    15:00 +16°C° 0 mm 3 m/s 758 mmHg 33%
    16:00 +16°C° 0 mm 3 m/s 757 mmHg 34%
    17:00 +16°C° 0 mm 2 m/s 757 mmHg 34%
    18:00 +14°C° 0 mm 2 m/s 758 mmHg 39%
    19:00 +12°C° 0 mm 2 m/s 758 mmHg 44%
    20:00 +11°C° 0 mm 1 m/s 758 mmHg 48%
    21:00 +10°C° 0 mm 1 m/s 759 mmHg 49%
    22:00 +9°C° 0 mm 1 m/s 759 mmHg 51%
    23:00 +9°C° 0 mm 1 m/s 759 mmHg 52%

    Depois de amanhã, 27 Setembro, Quinta-feira

    Tempo Temperatura Precipitação Vento Pressão Humidade
    00:00 +8°C° 0 mm 1 m/s 759 mmHg 53%
    01:00 +8°C° 0 mm 1 m/s 759 mmHg 53%
    02:00 +6°C° 0 mm 0 m/s 759 mmHg 54%
    03:00 +7°C° 0 mm 1 m/s 759 mmHg 55%
    04:00 +7°C° 0 mm 1 m/s 759 mmHg 55%
    05:00 +7°C° 0 mm 1 m/s 758 mmHg 56%
    06:00 +8°C° 0 mm 1 m/s 758 mmHg 51%
    07:00 +9°C° 0 mm 1 m/s 758 mmHg 47%
    08:00 +11°C° 0 mm 1 m/s 758 mmHg 43%
    09:00 +13°C° 0 mm 1 m/s 758 mmHg 39%
    10:00 +15°C° 0 mm 1 m/s 757 mmHg 34%
    11:00 +16°C° 0 mm 2 m/s 757 mmHg 30%
    12:00 +17°C° 0 mm 2 m/s 756 mmHg 28%
    13:00 +18°C° 0 mm 2 m/s 756 mmHg 26%
    14:00 +19°C° 0 mm 2 m/s 755 mmHg 24%
    15:00 +20°C° 0 mm 1 m/s 755 mmHg 24%
    16:00 +20°C° 0 mm 1 m/s 754 mmHg 25%
    17:00 +19°C° 0 mm 1 m/s 754 mmHg 26%
    18:00 +16°C° 0 mm 1 m/s 754 mmHg 29%
    19:00 +14°C° 0 mm 1 m/s 754 mmHg 32%
    20:00 +12°C° 0 mm 1 m/s 754 mmHg 36%
    21:00 +12°C° 0 mm 1 m/s 754 mmHg 36%
    22:00 +12°C° 0 mm 1 m/s 754 mmHg 36%
    23:00 +11°C° 0 mm 1 m/s 754 mmHg 36%

    28 Setembro, Sexta-feira

    Tempo Temperatura Precipitação Vento Pressão Humidade
    00:00 +11°C° 0 mm 1 m/s 754 mmHg 36%
    01:00 +11°C° 0 mm 1 m/s 754 mmHg 36%
    02:00 +11°C° 0 mm 1 m/s 753 mmHg 36%
    03:00 +11°C° 0 mm 1 m/s 753 mmHg 36%
    04:00 +10°C° 0 mm 1 m/s 753 mmHg 36%
    05:00 +10°C° 0 mm 1 m/s 752 mmHg 36%
    06:00 +12°C° 0 mm 1 m/s 752 mmHg 35%
    07:00 +13°C° 0 mm 1 m/s 752 mmHg 33%
    08:00 +14°C° 0 mm 1 m/s 752 mmHg 32%
    09:00 +16°C° 0 mm 1 m/s 752 mmHg 29%
    10:00 +19°C° 0 mm 2 m/s 751 mmHg 26%
    11:00 +21°C° 0 mm 2 m/s 751 mmHg 23%
    12:00 +23°C° 0 mm 2 m/s 750 mmHg 23%
    13:00 +24°C° 0 mm 2 m/s 750 mmHg 23%
    14:00 +25°C° 0 mm 2 m/s 749 mmHg 23%
    15:00 +24°C° 0 mm 2 m/s 748 mmHg 25%
    16:00 +24°C° 0 mm 2 m/s 748 mmHg 27%
    17:00 +23°C° 0 mm 2 m/s 747 mmHg 29%
    18:00 +20°C° 0 mm 2 m/s 747 mmHg 33%
    19:00 +18°C° 0 mm 2 m/s 747 mmHg 36%
    20:00 +16°C° 0 mm 2 m/s 747 mmHg 40%
    21:00 +15°C° 0 mm 2 m/s 747 mmHg 41%
    22:00 +15°C° 0 mm 2 m/s 747 mmHg 41%
    23:00 +14°C° 0 mm 1 m/s 747 mmHg 42%

    29 Setembro, Sábado

    Tempo Temperatura Precipitação Vento Pressão Humidade
    00:00 +14°C° 0 mm 1 m/s 747 mmHg 42%
    01:00 +13°C° 0 mm 1 m/s 747 mmHg 41%
    02:00 +13°C° 0 mm 1 m/s 747 mmHg 41%
    03:00 +13°C° 0 mm 1 m/s 747 mmHg 40%
    04:00 +13°C° 0 mm 1 m/s 746 mmHg 40%
    05:00 +13°C° 0 mm 1 m/s 746 mmHg 40%
    06:00 +14°C° 0 mm 1 m/s 746 mmHg 38%
    07:00 +15°C° 0 mm 1 m/s 746 mmHg 36%
    08:00 +16°C° 0 mm 1 m/s 746 mmHg 35%
    09:00 +19°C° 0 mm 1 m/s 746 mmHg 32%
    10:00 +21°C° 0 mm 1 m/s 746 mmHg 30%
    11:00 +23°C° 0 mm 1 m/s 746 mmHg 27%
    12:00 +24°C° 0 mm 1 m/s 746 mmHg 26%
    13:00 +25°C° 0 mm 1 m/s 745 mmHg 25%
    14:00 +26°C° 0 mm 2 m/s 745 mmHg 25%
    15:00 +26°C° 0 mm 1 m/s 745 mmHg 26%
    16:00 +25°C° 0 mm 1 m/s 745 mmHg 28%
    17:00 +25°C° 0 mm 1 m/s 744 mmHg 30%
    18:00 +23°C° 0 mm 1 m/s 745 mmHg 34%
    19:00 +21°C° 0 mm 1 m/s 745 mmHg 38%
    20:00 +19°C° 0 mm 1 m/s 746 mmHg 42%
    21:00 +18°C° 0 mm 1 m/s 746 mmHg 43%
    22:00 +18°C° 0 mm 1 m/s 746 mmHg 45%
    23:00 +16°C° 0 mm 1 m/s 746 mmHg 46%

    30 Setembro, Domingo

    Tempo Temperatura Precipitação Vento Pressão Humidade
    00:00 +15°C° 0 mm 2 m/s 747 mmHg 51%
    01:00 +15°C° 0 mm 2 m/s 747 mmHg 57%
    02:00 +13°C° 0 mm 3 m/s 747 mmHg 62%
    03:00 +12°C° 0 mm 3 m/s 748 mmHg 67%
    04:00 +12°C° 0 mm 3 m/s 748 mmHg 72%
    05:00 +11°C° 0 mm 3 m/s 748 mmHg 77%
    06:00 +12°C° 0 mm 3 m/s 749 mmHg 75%
    07:00 +13°C° 0 mm 4 m/s 749 mmHg 73%
    08:00 +13°C° 0 mm 4 m/s 749 mmHg 71%
    09:00 +15°C° 0 mm 4 m/s 749 mmHg 68%
    10:00 +17°C° 0 mm 4 m/s 749 mmHg 64%
    11:00 +18°C° 0 mm 4 m/s 750 mmHg 60%
    12:00 +19°C° 0 mm 4 m/s 749 mmHg 59%
    13:00 +19°C° 0 mm 5 m/s 749 mmHg 57%
    14:00 +20°C° 0 mm 5 m/s 749 mmHg 56%
    15:00 +19°C° 0 mm 5 m/s 748 mmHg 57%
    16:00 +19°C° 0 mm 4 m/s 748 mmHg 58%
    17:00 +19°C° 0 mm 4 m/s 748 mmHg 59%
    18:00 +18°C° 0 mm 3 m/s 748 mmHg 63%
    19:00 +16°C° 0 mm 3 m/s 749 mmHg 67%
    20:00 +15°C° 0 mm 2 m/s 749 mmHg 72%
    21:00 +15°C° 0 mm 2 m/s 749 mmHg 71%
    22:00 +15°C° 0 mm 2 m/s 749 mmHg 71%
    23:00 +14°C° 0 mm 2 m/s 749 mmHg 70%
    Mostrar mais